Time,TemperatureF,DewpointF,PressureIn,WindDirection,WindDirectionDegrees,WindSpeedMPH,WindSpeedGustMPH,Humidity,HourlyPrecipIn,Conditions,Clouds,dailyrainin,SoftwareType,DateUTC
2013-03-07 00:00:00,40.2,26.6,30.19,South,189,0.0,0.0,58,0.00,CLR,,0.00,WeatherDisplay:10.37,2013-03-07 06:00:00,
2013-03-07 00:05:00,40.0,26.4,30.19,South,189,0.0,0.0,58,0.00,CLR,,0.00,WeatherDisplay:10.37,2013-03-07 06:05:00,
2013-03-07 00:10:00,39.8,26.2,30.19,South,189,0.0,0.0,58,0.00,CLR,,0.00,WeatherDisplay:10.37,2013-03-07 06:10:00,
2013-03-07 00:15:00,39.6,26.0,30.19,South,189,0.0,0.0,58,0.00,CLR,,0.00,WeatherDisplay:10.37,2013-03-07 06:15:00,
2013-03-07 00:20:00,39.5,25.5,30.19,South,189,0.0,0.0,57,0.00,CLR,,0.00,WeatherDisplay:10.37,2013-03-07 06:20:00,
2013-03-07 00:25:00,39.3,25.7,30.19,South,189,0.0,0.0,58,0.00,CLR,,0.00,WeatherDisplay:10.37,2013-03-07 06:25:00,
2013-03-07 00:30:00,39.1,25.6,30.19,South,189,0.0,0.0,58,0.00,CLR,,0.00,WeatherDisplay:10.37,2013-03-07 06:30:00,
2013-03-07 00:35:00,39.0,25.5,30.19,South,189,0.0,0.0,58,0.00,CLR,,0.00,WeatherDisplay:10.37,2013-03-07 06:35:00,
2013-03-07 00:40:00,39.0,25.5,30.19,South,189,0.0,0.0,58,0.00,CLR,,0.00,WeatherDisplay:10.37,2013-03-07 06:40:00,
2013-03-07 00:45:00,38.9,25.4,30.19,South,189,0.0,0.0,58,0.00,CLR,,0.00,WeatherDisplay:10.37,2013-03-07 06:45:00,
2013-03-07 00:50:00,38.9,24.9,30.19,South,189,0.0,0.0,57,0.00,CLR,,0.00,WeatherDisplay:10.37,2013-03-07 06:50:00,
2013-03-07 00:55:00,38.9,24.9,30.18,South,189,0.0,0.0,57,0.00,CLR,,0.00,WeatherDisplay:10.37,2013-03-07 06:55:00,
2013-03-07 01:00:00,39.0,26.7,30.18,South,189,0.0,0.0,61,0.00,CLR,,0.00,WeatherDisplay:10.37,2013-03-07 07:00:00,
2013-03-07 01:05:00,39.0,25.5,30.18,South,189,0.0,0.0,58,0.00,CLR,,0.00,WeatherDisplay:10.37,2013-03-07 07:05:00,
2013-03-07 01:10:00,39.0,25.5,30.18,South,189,0.0,0.0,58,0.00,CLR,,0.00,WeatherDisplay:10.37,2013-03-07 07:10:00,
2013-03-07 01:15:00,39.1,25.6,30.18,South,189,0.0,0.0,58,0.00,CLR,,0.00,WeatherDisplay:10.37,2013-03-07 07:15:00,
2013-03-07 01:20:00,39.2,25.6,30.18,South,189,0.0,0.0,58,0.00,CLR,,0.00,WeatherDisplay:10.37,2013-03-07 07:20:00,
2013-03-07 01:25:00,39.2,25.6,30.18,South,189,0.0,0.0,58,0.00,CLR,,0.00,WeatherDisplay:10.37,2013-03-07 07:25:00,
2013-03-07 01:30:00,39.3,25.7,30.18,South,189,0.0,0.0,58,0.00,CLR,,0.00,WeatherDisplay:10.37,2013-03-07 07:30:00,
2013-03-07 01:35:00,39.3,26.2,30.18,South,189,0.0,0.0,59,0.00,CLR,,0.00,WeatherDisplay:10.37,2013-03-07 07:35:00,
2013-03-07 01:40:00,39.3,26.2,30.18,South,189,0.0,0.0,59,0.00,CLR,,0.00,WeatherDisplay:10.37,2013-03-07 07:40:00,
2013-03-07 01:45:00,39.3,26.2,30.18,South,189,0.0,0.0,59,0.00,CLR,,0.00,WeatherDisplay:10.37,2013-03-07 07:45:00,
2013-03-07 01:50:00,39.3,25.7,30.17,South,189,0.0,0.0,58,0.00,CLR,,0.00,WeatherDisplay:10.37,2013-03-07 07:50:00,
2013-03-07 01:56:00,39.3,26.2,30.17,South,189,0.0,0.0,59,0.00,CLR,,0.00,WeatherDisplay:10.37,2013-03-07 07:56:00,
2013-03-07 02:01:00,39.3,26.2,30.17,South,189,0.0,0.0,59,0.00,CLR,,0.00,WeatherDisplay:10.37,2013-03-07 08:01:00,
2013-03-07 02:06:00,39.2,26.1,30.18,South,189,0.0,0.0,59,0.00,CLR,,0.00,WeatherDisplay:10.37,2013-03-07 08:06:00,
2013-03-07 02:11:00,39.2,26.5,30.17,South,189,0.0,0.0,60,0.00,CLR,,0.00,WeatherDisplay:10.37,2013-03-07 08:11:00,
2013-03-07 02:16:00,39.2,26.5,30.17,South,189,0.0,0.0,60,0.00,CLR,,0.00,WeatherDisplay:10.37,2013-03-07 08:16:00,
2013-03-07 02:21:00,39.1,26.4,30.17,South,189,0.0,0.0,60,0.00,CLR,,0.00,WeatherDisplay:10.37,2013-03-07 08:21:00,
2013-03-07 02:26:00,39.2,26.5,30.17,South,189,0.0,0.0,60,0.00,CLR,,0.00,WeatherDisplay:10.37,2013-03-07 08:26:00,
2013-03-07 02:31:00,39.2,26.5,30.17,South,189,0.0,0.0,60,0.00,CLR,,0.00,WeatherDisplay:10.37,2013-03-07 08:31:00,
2013-03-07 02:36:00,39.2,26.5,30.17,South,189,0.0,0.0,60,0.00,CLR,,0.00,WeatherDisplay:10.37,2013-03-07 08:36:00,
2013-03-07 02:41:00,39.2,26.5,30.16,South,189,0.0,0.0,60,0.00,CLR,,0.00,WeatherDisplay:10.37,2013-03-07 08:41:00,
2013-03-07 02:46:00,39.2,26.9,30.16,South,189,0.0,0.0,61,0.00,CLR,,0.00,WeatherDisplay:10.37,2013-03-07 08:46:00,
2013-03-07 02:51:00,39.3,26.6,30.16,South,189,0.0,0.0,60,0.00,CLR,,0.00,WeatherDisplay:10.37,2013-03-07 08:51:00,
2013-03-07 02:56:00,39.4,27.1,30.16,South,189,0.0,0.0,61,0.00,CLR,,0.00,WeatherDisplay:10.37,2013-03-07 08:56:00,
2013-03-07 03:01:00,39.4,27.1,30.15,South,189,0.0,0.0,61,0.00,CLR,,0.00,WeatherDisplay:10.37,2013-03-07 09:01:00,
2013-03-07 03:06:00,39.4,27.1,30.15,South,189,0.0,0.0,61,0.00,CLR,,0.00,WeatherDisplay:10.37,2013-03-07 09:06:00,
2013-03-07 03:12:00,39.5,27.5,30.14,South,189,0.0,0.0,62,0.00,CLR,,0.00,WeatherDisplay:10.37,2013-03-07 09:12:00,
2013-03-07 03:17:00,39.5,27.5,30.14,South,189,0.0,0.0,62,0.00,CLR,,0.00,WeatherDisplay:10.37,2013-03-07 09:17:00,
2013-03-07 03:22:00,39.5,27.5,30.14,South,189,0.0,0.0,62,0.00,CLR,,0.00,WeatherDisplay:10.37,2013-03-07 09:22:00,
2013-03-07 03:27:00,39.5,27.5,30.14,South,189,0.0,0.0,62,0.00,CLR,,0.00,WeatherDisplay:10.37,2013-03-07 09:27:00,
2013-03-07 03:32:00,39.5,27.5,30.14,South,189,0.0,0.0,62,0.00,CLR,,0.00,WeatherDisplay:10.37,2013-03-07 09:32:00,
2013-03-07 03:37:00,39.4,27.8,30.13,South,189,0.0,0.0,63,0.00,CLR,,0.00,WeatherDisplay:10.37,2013-03-07 09:37:00,
2013-03-07 03:42:00,39.4,27.8,30.13,South,189,0.0,0.0,63,0.00,CLR,,0.00,WeatherDisplay:10.37,2013-03-07 09:42:00,
2013-03-07 03:47:00,39.2,27.7,30.13,South,189,0.0,0.0,63,0.00,CLR,,0.00,WeatherDisplay:10.37,2013-03-07 09:47:00,
2013-03-07 03:52:00,39.1,27.9,30.13,South,189,0.0,0.0,64,0.00,CLR,,0.00,WeatherDisplay:10.37,2013-03-07 09:52:00,
2013-03-07 03:57:00,39.0,27.8,30.13,South,189,0.0,0.0,64,0.00,CLR,,0.00,WeatherDisplay:10.37,2013-03-07 09:57:00,
2013-03-07 04:02:00,38.9,27.8,30.12,South,189,0.0,0.0,64,0.00,CLR,,0.00,WeatherDisplay:10.37,2013-03-07 10:02:00,
2013-03-07 04:07:00,38.8,27.7,30.12,South,189,0.0,0.0,64,0.00,CLR,,0.00,WeatherDisplay:10.37,2013-03-07 10:07:00,
2013-03-07 04:12:00,38.7,27.9,30.12,South,189,0.0,0.0,65,0.00,CLR,,0.00,WeatherDisplay:10.37,2013-03-07 10:12:00,
2013-03-07 04:17:00,38.6,27.8,30.12,South,189,0.0,0.0,65,0.00,CLR,,0.00,WeatherDisplay:10.37,2013-03-07 10:17:00,
2013-03-07 04:22:00,38.5,28.1,30.12,South,189,0.0,0.0,66,0.00,CLR,,0.00,WeatherDisplay:10.37,2013-03-07 10:22:00,
2013-03-07 04:28:00,38.3,27.9,30.13,South,189,0.0,0.0,66,0.00,CLR,,0.00,WeatherDisplay:10.37,2013-03-07 10:28:00,
2013-03-07 04:33:00,38.2,28.2,30.13,South,189,0.0,0.0,67,0.00,CLR,,0.00,WeatherDisplay:10.37,2013-03-07 10:33:00,
2013-03-07 04:38:00,38.1,28.1,30.13,South,189,0.0,0.0,67,0.00,CLR,,0.00,WeatherDisplay:10.37,2013-03-07 10:38:00,
2013-03-07 04:43:00,38.1,28.1,30.13,South,189,0.0,0.0,67,0.00,CLR,,0.00,WeatherDisplay:10.37,2013-03-07 10:43:00,
2013-03-07 04:48:00,38.0,28.0,30.13,South,189,0.0,0.0,67,0.00,CLR,,0.00,WeatherDisplay:10.37,2013-03-07 10:48:00,
2013-03-07 04:53:00,37.9,27.9,30.13,South,189,0.0,0.0,67,0.00,CLR,,0.00,WeatherDisplay:10.37,2013-03-07 10:53:00,
2013-03-07 04:58:00,37.8,28.2,30.13,South,189,0.0,0.0,68,0.00,CLR,,0.00,WeatherDisplay:10.37,2013-03-07 10:58:00,
2013-03-07 05:03:00,37.7,28.1,30.13,South,189,0.0,0.0,68,0.00,CLR,,0.00,WeatherDisplay:10.37,2013-03-07 11:03:00,
2013-03-07 05:08:00,37.5,27.9,30.13,South,189,0.0,0.0,68,0.00,CLR,,0.00,WeatherDisplay:10.37,2013-03-07 11:08:00,
2013-03-07 05:13:00,37.4,27.8,30.13,South,189,0.0,0.0,68,0.00,CLR,,0.00,WeatherDisplay:10.37,2013-03-07 11:13:00,
2013-03-07 05:18:00,37.3,27.7,30.13,South,189,0.0,0.0,68,0.00,CLR,,0.00,WeatherDisplay:10.37,2013-03-07 11:18:00,
2013-03-07 05:23:00,37.0,27.4,30.14,South,189,0.0,0.0,68,0.00,CLR,,0.00,WeatherDisplay:10.37,2013-03-07 11:23:00,
2013-03-07 05:28:00,36.9,27.3,30.14,South,189,0.0,0.0,68,0.00,CLR,,0.00,WeatherDisplay:10.37,2013-03-07 11:28:00,
2013-03-07 05:33:00,36.8,27.6,30.14,South,189,0.0,0.0,69,0.00,CLR,,0.00,WeatherDisplay:10.37,2013-03-07 11:33:00,
2013-03-07 05:38:00,36.6,27.4,30.14,South,189,0.0,0.0,69,0.00,CLR,,0.00,WeatherDisplay:10.37,2013-03-07 11:38:00,
2013-03-07 05:43:00,36.4,27.5,30.14,South,189,0.0,0.0,70,0.00,CLR,,0.00,WeatherDisplay:10.37,2013-03-07 11:43:00,
2013-03-07 05:48:00,36.3,27.8,30.14,South,189,0.0,0.0,71,0.00,CLR,,0.00,WeatherDisplay:10.37,2013-03-07 11:48:00,
2013-03-07 05:53:00,36.3,28.1,30.14,South,189,0.0,0.0,72,0.00,CLR,,0.00,WeatherDisplay:10.37,2013-03-07 11:53:00,
2013-03-07 05:58:00,36.3,28.1,30.15,South,189,0.0,0.0,72,0.00,CLR,,0.00,WeatherDisplay:10.37,2013-03-07 11:58:00,
2013-03-07 06:03:00,36.3,28.1,30.15,South,189,0.0,0.0,72,0.00,CLR,,0.00,WeatherDisplay:10.37,2013-03-07 12:03:00,
2013-03-07 06:08:00,36.2,28.0,30.15,South,189,0.0,0.0,72,0.00,CLR,,0.00,WeatherDisplay:10.37,2013-03-07 12:08:00,
2013-03-07 06:13:00,36.2,28.0,30.15,South,189,0.0,0.0,72,0.00,CLR,,0.00,WeatherDisplay:10.37,2013-03-07 12:13:00,
2013-03-07 06:18:00,36.2,28.0,30.15,South,189,0.0,0.0,72,0.00,CLR,,0.00,WeatherDisplay:10.37,2013-03-07 12:18:00,
2013-03-07 06:23:00,36.2,28.4,30.15,South,189,0.0,0.0,73,0.00,CLR,,0.00,WeatherDisplay:10.37,2013-03-07 12:23:00,
2013-03-07 06:29:00,36.2,28.4,30.15,South,189,0.0,0.0,73,0.00,CLR,,0.00,WeatherDisplay:10.37,2013-03-07 12:29:00,
2013-03-07 06:34:00,36.2,28.4,30.15,South,189,0.0,0.0,73,0.00,CLR,,0.00,WeatherDisplay:10.37,2013-03-07 12:34:00,
2013-03-07 06:39:00,36.2,28.7,30.15,South,189,0.0,0.0,74,0.00,CLR,,0.00,WeatherDisplay:10.37,2013-03-07 12:39:00,
2013-03-07 06:44:00,36.3,28.8,30.15,South,189,0.0,0.0,74,0.00,CLR,,0.00,WeatherDisplay:10.37,2013-03-07 12:44:00,
2013-03-07 06:49:00,36.4,29.2,30.16,South,189,0.0,0.0,75,0.00,CLR,,0.00,WeatherDisplay:10.37,2013-03-07 12:49:00,
2013-03-07 06:54:00,36.5,29.7,30.16,South,189,0.0,0.0,76,0.00,CLR,,0.00,WeatherDisplay:10.37,2013-03-07 12:54:00,
2013-03-07 06:59:00,36.7,29.8,30.16,South,189,0.0,0.0,76,0.00,CLR,,0.00,WeatherDisplay:10.37,2013-03-07 12:59:00,
2013-03-07 07:04:00,36.9,30.4,30.16,South,189,0.0,0.0,77,0.00,CLR,,0.00,WeatherDisplay:10.37,2013-03-07 13:04:00,
2013-03-07 07:09:00,37.1,30.2,30.17,South,189,0.0,0.0,76,0.00,CLR,,0.00,WeatherDisplay:10.37,2013-03-07 13:09:00,
2013-03-07 07:14:00,37.3,30.7,30.17,South,189,0.0,0.0,77,0.00,CLR,,0.00,WeatherDisplay:10.37,2013-03-07 13:14:00,
2013-03-07 07:19:00,37.5,30.9,30.17,South,189,0.0,0.0,77,0.00,CLR,,0.00,WeatherDisplay:10.37,2013-03-07 13:19:00,
2013-03-07 07:24:00,37.9,31.3,30.17,South,189,0.0,0.0,77,0.00,CLR,,0.00,WeatherDisplay:10.37,2013-03-07 13:24:00,
2013-03-07 07:29:00,38.2,31.9,30.18,South,189,0.0,0.0,78,0.00,CLR,,0.00,WeatherDisplay:10.37,2013-03-07 13:29:00,
2013-03-07 07:34:00,38.6,32.3,30.18,South,189,0.0,0.0,78,0.00,CLR,,0.00,WeatherDisplay:10.37,2013-03-07 13:34:00,
2013-03-07 07:39:00,38.9,32.6,30.18,South,189,0.0,0.0,78,0.00,CLR,,0.00,WeatherDisplay:10.37,2013-03-07 13:39:00,
2013-03-07 07:44:00,39.4,33.1,30.18,South,189,0.0,0.0,78,0.00,CLR,,0.00,WeatherDisplay:10.37,2013-03-07 13:44:00,
2013-03-07 07:49:00,39.9,33.9,30.18,South,189,0.0,0.0,79,0.00,CLR,,0.00,WeatherDisplay:10.37,2013-03-07 13:49:00,
2013-03-07 07:54:00,40.5,34.5,30.19,South,189,0.0,0.0,79,0.00,CLR,,0.00,WeatherDisplay:10.37,2013-03-07 13:54:00,
2013-03-07 07:59:00,41.0,35.0,30.19,South,189,0.0,0.0,79,0.00,CLR,,0.00,WeatherDisplay:10.37,2013-03-07 13:59:00,
2013-03-07 08:04:00,41.6,35.6,30.19,South,189,0.0,0.0,79,0.00,CLR,,0.00,WeatherDisplay:10.37,2013-03-07 14:04:00,
2013-03-07 08:09:00,42.1,36.4,30.19,South,189,0.0,0.0,80,0.00,CLR,,0.00,WeatherDisplay:10.37,2013-03-07 14:09:00,
2013-03-07 08:14:00,42.8,37.4,30.20,South,189,0.0,0.0,81,0.00,CLR,,0.00,WeatherDisplay:10.37,2013-03-07 14:14:00,
2013-03-07 08:19:00,43.5,38.1,30.20,South,189,0.0,0.0,81,0.00,CLR,,0.00,WeatherDisplay:10.37,2013-03-07 14:19:00,
2013-03-07 08:24:00,44.4,39.2,30.20,South,189,0.0,0.0,82,0.00,CLR,,0.00,WeatherDisplay:10.37,2013-03-07 14:24:00,
2013-03-07 08:29:00,45.1,39.6,30.21,South,189,0.0,1.2,81,0.00,CLR,,0.00,WeatherDisplay:10.37,2013-03-07 14:29:00,
2013-03-07 08:34:00,45.9,40.7,30.21,South,189,0.5,1.2,82,0.00,CLR,,0.00,WeatherDisplay:10.37,2013-03-07 14:34:00,
2013-03-07 08:39:00,46.5,41.3,30.21,South,189,0.0,0.0,82,0.00,CLR,,0.00,WeatherDisplay:10.37,2013-03-07 14:39:00,
2013-03-07 08:44:00,47.0,41.8,30.21,South,189,0.0,0.0,82,0.00,CLR,,0.00,WeatherDisplay:10.37,2013-03-07 14:44:00,
2013-03-07 08:49:00,47.3,42.1,30.21,South,189,0.0,0.0,82,0.00,CLR,,0.00,WeatherDisplay:10.37,2013-03-07 14:49:00,
2013-03-07 08:54:00,47.9,42.7,30.21,South,189,0.0,0.0,82,0.00,CLR,,0.00,WeatherDisplay:10.37,2013-03-07 14:54:00,
2013-03-07 08:59:00,48.4,43.2,30.22,South,189,0.0,1.2,82,0.00,CLR,,0.00,WeatherDisplay:10.37,2013-03-07 14:59:00,
2013-03-07 09:05:00,49.1,43.8,30.21,South,189,0.0,0.0,82,0.00,CLR,,0.00,WeatherDisplay:10.37,2013-03-07 15:05:00,
2013-03-07 09:10:00,49.7,44.4,30.21,South,189,0.0,0.0,82,0.00,CLR,,0.00,WeatherDisplay:10.37,2013-03-07 15:10:00,
2013-03-07 09:15:00,50.4,44.8,30.21,South,172,0.0,0.0,81,0.00,CLR,,0.00,WeatherDisplay:10.37,2013-03-07 15:15:00,
2013-03-07 09:20:00,51.0,45.0,30.21,NE,49,2.0,3.5,80,0.00,CLR,,0.00,WeatherDisplay:10.37,2013-03-07 15:20:00,
2013-03-07 09:25:00,51.6,45.6,30.21,ESE,109,0.5,2.3,80,0.00,CLR,,0.00,WeatherDisplay:10.37,2013-03-07 15:25:00,
2013-03-07 09:30:00,52.2,45.9,30.20,ENE,65,0.1,3.5,79,0.00,CLR,,0.00,WeatherDisplay:10.37,2013-03-07 15:30:00,
2013-03-07 09:35:00,52.7,46.4,30.20,East,84,0.0,1.2,79,0.00,CLR,,0.00,WeatherDisplay:10.37,2013-03-07 15:35:00,
2013-03-07 09:40:00,53.2,46.5,30.20,East,90,0.1,1.2,78,0.00,CLR,,0.00,WeatherDisplay:10.37,2013-03-07 15:40:00,
2013-03-07 09:45:00,53.8,47.1,30.20,NE,38,2.5,6.9,78,0.00,CLR,,0.00,WeatherDisplay:10.37,2013-03-07 15:45:00,
2013-03-07 09:50:00,54.3,47.2,30.21,East,79,0.0,0.0,77,0.00,CLR,,0.00,WeatherDisplay:10.37,2013-03-07 15:50:00,
2013-03-07 09:55:00,54.8,47.7,30.21,East,79,0.0,0.0,77,0.00,CLR,,0.00,WeatherDisplay:10.37,2013-03-07 15:55:00,
2013-03-07 10:00:00,55.4,48.0,30.20,East,83,0.0,0.0,76,0.00,CLR,,0.00,WeatherDisplay:10.37,2013-03-07 16:00:00,
2013-03-07 10:05:00,56.1,48.3,30.20,East,97,0.4,2.3,75,0.00,CLR,,0.00,WeatherDisplay:10.37,2013-03-07 16:05:00,
2013-03-07 10:10:00,56.9,49.1,30.20,ENE,69,0.1,2.3,75,0.00,CLR,,0.00,WeatherDisplay:10.37,2013-03-07 16:10:00,
2013-03-07 10:15:00,57.7,49.5,30.20,ESE,119,0.1,2.3,74,0.00,CLR,,0.00,WeatherDisplay:10.37,2013-03-07 16:15:00,
2013-03-07 10:20:00,58.2,50.0,30.20,WSW,251,0.1,1.2,74,0.00,CLR,,0.00,WeatherDisplay:10.37,2013-03-07 16:20:00,
2013-03-07 10:25:00,58.8,49.8,30.20,SSW,209,1.8,3.5,72,0.00,CLR,,0.00,WeatherDisplay:10.37,2013-03-07 16:25:00,
2013-03-07 10:30:00,59.4,50.4,30.20,SE,125,1.2,4.0,72,0.00,CLR,,0.00,WeatherDisplay:10.37,2013-03-07 16:30:00,
2013-03-07 10:35:00,59.7,50.3,30.20,SE,130,0.4,3.5,71,0.00,CLR,,0.00,WeatherDisplay:10.37,2013-03-07 16:35:00,
2013-03-07 10:40:00,60.0,50.2,30.20,East,101,2.2,3.5,70,0.00,CLR,,0.00,WeatherDisplay:10.37,2013-03-07 16:40:00,
2013-03-07 10:45:00,60.4,50.6,30.20,SW,227,1.3,3.5,70,0.00,CLR,,0.00,WeatherDisplay:10.37,2013-03-07 16:45:00,
2013-03-07 10:50:00,60.9,51.0,30.19,SSW,208,0.1,2.3,70,0.00,CLR,,0.00,WeatherDisplay:10.37,2013-03-07 16:50:00,
2013-03-07 10:55:00,61.3,51.0,30.19,NE,42,0.1,1.2,69,0.00,CLR,,0.00,WeatherDisplay:10.37,2013-03-07 16:55:00,
2013-03-07 11:00:00,61.6,51.3,30.19,SSW,202,1.2,2.3,69,0.00,CLR,,0.00,WeatherDisplay:10.37,2013-03-07 17:00:00,
2013-03-07 11:05:00,61.9,51.2,30.19,SW,223,0.0,1.2,68,0.00,CLR,,0.00,WeatherDisplay:10.37,2013-03-07 17:05:00,
2013-03-07 11:10:00,62.4,51.7,30.19,NE,50,0.1,3.5,68,0.00,CLR,,0.00,WeatherDisplay:10.37,2013-03-07 17:10:00,
2013-03-07 11:15:00,62.7,51.6,30.18,SE,129,0.6,2.3,67,0.00,CLR,,0.00,WeatherDisplay:10.37,2013-03-07 17:15:00,
2013-03-07 11:20:00,63.1,52.0,30.18,SW,218,1.5,3.5,67,0.00,CLR,,0.00,WeatherDisplay:10.37,2013-03-07 17:20:00,
2013-03-07 11:25:00,63.6,51.6,30.18,SE,134,0.3,4.6,65,0.00,CLR,,0.00,WeatherDisplay:10.37,2013-03-07 17:25:00,
2013-03-07 11:30:00,64.0,52.4,30.18,East,101,1.6,2.3,66,0.00,CLR,,0.00,WeatherDisplay:10.37,2013-03-07 17:30:00,
2013-03-07 11:35:00,64.6,52.1,30.18,ESE,114,0.3,4.0,64,0.00,CLR,,0.00,WeatherDisplay:10.37,2013-03-07 17:35:00,
2013-03-07 11:40:00,65.0,52.1,30.18,East,89,2.9,4.0,63,0.00,CLR,,0.00,WeatherDisplay:10.37,2013-03-07 17:40:00,
2013-03-07 11:45:00,65.3,51.9,30.17,SE,141,2.0,5.0,62,0.00,CLR,,0.00,WeatherDisplay:10.37,2013-03-07 17:45:00,
2013-03-07 11:50:00,65.7,51.9,30.17,South,184,0.9,2.3,61,0.00,CLR,,0.00,WeatherDisplay:10.37,2013-03-07 17:50:00,
2013-03-07 11:55:00,66.0,51.7,30.17,ENE,65,0.8,1.2,60,0.00,CLR,,0.00,WeatherDisplay:10.37,2013-03-07 17:55:00,
2013-03-07 12:01:00,66.1,51.8,30.16,South,190,2.0,4.6,60,0.00,CLR,,0.00,WeatherDisplay:10.37,2013-03-07 18:01:00,
2013-03-07 12:06:00,66.1,51.4,30.16,SSE,150,0.0,0.0,59,0.00,CLR,,0.00,WeatherDisplay:10.37,2013-03-07 18:06:00,
2013-03-07 12:11:00,66.3,51.1,30.16,SSW,195,0.1,1.2,58,0.00,CLR,,0.00,WeatherDisplay:10.37,2013-03-07 18:11:00,
2013-03-07 12:16:00,66.4,50.7,30.16,ESE,113,0.0,1.2,57,0.00,CLR,,0.00,WeatherDisplay:10.37,2013-03-07 18:16:00,
2013-03-07 12:21:00,66.7,51.0,30.16,SE,127,0.1,1.2,57,0.00,CLR,,0.00,WeatherDisplay:10.37,2013-03-07 18:21:00,
2013-03-07 12:26:00,67.6,51.3,30.15,SSW,205,0.8,3.5,56,0.00,CLR,,0.00,WeatherDisplay:10.37,2013-03-07 18:26:00,
2013-03-07 12:31:00,68.0,51.2,30.15,ESE,109,1.0,3.5,55,0.00,CLR,,0.00,WeatherDisplay:10.37,2013-03-07 18:31:00,
2013-03-07 12:36:00,68.5,51.2,30.14,SSW,205,1.5,5.8,54,0.00,CLR,,0.00,WeatherDisplay:10.37,2013-03-07 18:36:00,
2013-03-07 12:41:00,68.9,51.1,30.14,North,11,0.6,3.5,53,0.00,CLR,,0.00,WeatherDisplay:10.37,2013-03-07 18:41:00,
2013-03-07 12:46:00,69.0,50.6,30.14,ESE,104,0.8,2.3,52,0.00,CLR,,0.00,WeatherDisplay:10.37,2013-03-07 18:46:00,
2013-03-07 12:51:00,69.0,51.2,30.13,SSW,206,0.2,2.0,53,0.00,CLR,,0.00,WeatherDisplay:10.37,2013-03-07 18:51:00,
2013-03-07 12:56:00,69.3,50.9,30.13,East,82,0.8,3.0,52,0.00,CLR,,0.00,WeatherDisplay:10.37,2013-03-07 18:56:00,
2013-03-07 13:01:00,69.6,50.7,30.13,South,173,0.0,1.2,51,0.00,CLR,,0.00,WeatherDisplay:10.37,2013-03-07 19:01:00,
2013-03-07 13:06:00,70.0,50.5,30.12,SSE,156,0.5,3.5,50,0.00,CLR,,0.00,WeatherDisplay:10.37,2013-03-07 19:06:00,
2013-03-07 13:11:00,70.3,50.2,30.12,WNW,286,1.4,3.0,49,0.00,CLR,,0.00,WeatherDisplay:10.37,2013-03-07 19:11:00,
2013-03-07 13:16:00,70.8,50.7,30.12,West,260,3.2,5.8,49,0.00,CLR,,0.00,WeatherDisplay:10.37,2013-03-07 19:16:00,
2013-03-07 13:21:00,71.9,51.1,30.11,South,169,1.0,2.3,48,0.00,CLR,,0.00,WeatherDisplay:10.37,2013-03-07 19:21:00,
2013-03-07 13:26:00,72.3,51.5,30.11,South,184,1.5,3.5,48,0.00,CLR,,0.00,WeatherDisplay:10.37,2013-03-07 19:26:00,
2013-03-07 13:31:00,72.8,51.4,30.11,ESE,113,0.4,2.0,47,0.00,CLR,,0.00,WeatherDisplay:10.37,2013-03-07 19:31:00,
2013-03-07 13:37:00,72.4,50.4,30.10,NNW,327,0.5,1.2,46,0.00,CLR,,0.00,WeatherDisplay:10.37,2013-03-07 19:37:00,
2013-03-07 13:42:00,72.8,50.2,30.10,ESE,106,3.8,5.0,45,0.00,CLR,,0.00,WeatherDisplay:10.37,2013-03-07 19:42:00,
2013-03-07 13:47:00,73.0,49.8,30.10,SSE,152,0.7,3.5,44,0.00,CLR,,0.00,WeatherDisplay:10.37,2013-03-07 19:47:00,
2013-03-07 13:52:00,73.7,50.4,30.10,SE,132,1.4,3.5,44,0.00,CLR,,0.00,WeatherDisplay:10.37,2013-03-07 19:52:00,
2013-03-07 13:57:00,73.5,50.2,30.10,SE,136,1.2,3.5,44,0.00,CLR,,0.00,WeatherDisplay:10.37,2013-03-07 19:57:00,
2013-03-07 14:02:00,74.0,50.7,30.09,ESE,103,0.9,4.6,44,0.00,CLR,,0.00,WeatherDisplay:10.37,2013-03-07 20:02:00,
2013-03-07 14:07:00,74.2,50.9,30.09,ESE,121,1.2,3.5,44,0.00,CLR,,0.00,WeatherDisplay:10.37,2013-03-07 20:07:00,
2013-03-07 14:12:00,74.5,50.5,30.09,South,190,1.2,5.8,43,0.00,CLR,,0.00,WeatherDisplay:10.37,2013-03-07 20:12:00,
2013-03-07 14:17:00,74.9,50.9,30.08,SW,216,1.9,3.5,43,0.00,CLR,,0.00,WeatherDisplay:10.37,2013-03-07 20:17:00,
2013-03-07 14:22:00,74.9,50.9,30.08,SW,216,0.9,3.5,43,0.00,CLR,,0.00,WeatherDisplay:10.37,2013-03-07 20:22:00,
2013-03-07 14:27:00,74.6,50.0,30.08,East,80,1.3,3.5,42,0.00,CLR,,0.00,WeatherDisplay:10.37,2013-03-07 20:27:00,
2013-03-07 14:32:00,74.6,50.6,30.08,East,97,0.9,5.8,43,0.00,CLR,,0.00,WeatherDisplay:10.37,2013-03-07 20:32:00,
2013-03-07 14:37:00,74.4,50.4,30.08,ESE,102,1.2,4.6,43,0.00,CLR,,0.00,WeatherDisplay:10.37,2013-03-07 20:37:00,
2013-03-07 14:42:00,73.7,50.4,30.07,WSW,237,1.1,3.5,44,0.00,CLR,,0.00,WeatherDisplay:10.37,2013-03-07 20:42:00,
2013-03-07 14:47:00,74.0,50.7,30.07,SE,134,0.6,2.3,44,0.00,CLR,,0.00,WeatherDisplay:10.37,2013-03-07 20:47:00,
2013-03-07 14:52:00,74.3,51.0,30.07,SE,132,1.4,3.5,44,0.00,CLR,,0.00,WeatherDisplay:10.37,2013-03-07 20:52:00,
2013-03-07 14:57:00,74.5,50.5,30.07,ENE,76,0.3,1.2,43,0.00,CLR,,0.00,WeatherDisplay:10.37,2013-03-07 20:57:00,
2013-03-07 15:02:00,75.4,50.1,30.07,SE,132,1.6,4.6,41,0.00,CLR,,0.00,WeatherDisplay:10.37,2013-03-07 21:02:00,
2013-03-07 15:07:00,75.7,50.3,30.07,SW,222,1.7,4.6,41,0.00,CLR,,0.00,WeatherDisplay:10.37,2013-03-07 21:07:00,
2013-03-07 15:12:00,75.9,49.8,30.06,NE,49,1.1,3.5,40,0.00,CLR,,0.00,WeatherDisplay:10.37,2013-03-07 21:12:00,
2013-03-07 15:17:00,76.1,50.7,30.06,ESE,117,1.6,3.5,41,0.00,CLR,,0.00,WeatherDisplay:10.37,2013-03-07 21:17:00,
2013-03-07 15:22:00,76.4,51.0,30.06,ENE,76,0.4,2.3,41,0.00,CLR,,0.00,WeatherDisplay:10.37,2013-03-07 21:22:00,
2013-03-07 15:27:00,76.2,50.8,30.06,East,88,0.5,2.3,41,0.00,CLR,,0.00,WeatherDisplay:10.37,2013-03-07 21:27:00,
2013-03-07 15:32:00,76.2,51.4,30.06,ENE,65,1.7,4.0,42,0.00,CLR,,0.00,WeatherDisplay:10.37,2013-03-07 21:32:00,
2013-03-07 15:37:00,76.3,51.5,30.06,ESE,112,1.5,2.3,42,0.00,CLR,,0.00,WeatherDisplay:10.37,2013-03-07 21:37:00,
2013-03-07 15:42:00,76.0,51.2,30.06,SW,219,1.3,3.0,42,0.00,CLR,,0.00,WeatherDisplay:10.37,2013-03-07 21:42:00,
2013-03-07 15:47:00,75.9,51.8,30.06,ESE,122,1.5,4.0,43,0.00,CLR,,0.00,WeatherDisplay:10.37,2013-03-07 21:47:00,
2013-03-07 15:52:00,75.5,52.1,30.06,SW,215,0.3,2.3,44,0.00,CLR,,0.00,WeatherDisplay:10.37,2013-03-07 21:52:00,
2013-03-07 15:57:00,75.2,51.8,30.06,SE,137,0.5,2.3,44,0.00,CLR,,0.00,WeatherDisplay:10.37,2013-03-07 21:57:00,
2013-03-07 16:02:00,74.7,51.9,30.06,South,180,0.0,1.2,45,0.00,CLR,,0.00,WeatherDisplay:10.37,2013-03-07 22:02:00,
2013-03-07 16:08:00,74.5,52.4,30.05,SSW,208,0.3,2.0,46,0.00,CLR,,0.00,WeatherDisplay:10.37,2013-03-07 22:08:00,
2013-03-07 16:13:00,74.1,52.0,30.05,WNW,302,0.2,1.2,46,0.00,CLR,,0.00,WeatherDisplay:10.37,2013-03-07 22:13:00,
2013-03-07 16:18:00,73.9,51.8,30.06,South,182,0.4,1.2,46,0.00,CLR,,0.00,WeatherDisplay:10.37,2013-03-07 22:18:00,
2013-03-07 16:23:00,73.4,51.9,30.05,SSE,159,1.0,2.3,47,0.00,CLR,,0.00,WeatherDisplay:10.37,2013-03-07 22:23:00,
2013-03-07 16:28:00,73.0,52.7,30.05,ESE,120,0.2,2.3,49,0.00,CLR,,0.00,WeatherDisplay:10.37,2013-03-07 22:28:00,
2013-03-07 16:33:00,72.9,52.6,30.05,SE,140,0.1,1.2,49,0.00,CLR,,0.00,WeatherDisplay:10.37,2013-03-07 22:33:00,
2013-03-07 16:38:00,72.7,53.0,30.05,SSW,198,2.4,5.8,50,0.00,CLR,,0.00,WeatherDisplay:10.37,2013-03-07 22:38:00,
2013-03-07 16:43:00,72.2,53.1,30.05,East,93,0.1,2.3,51,0.00,CLR,,0.00,WeatherDisplay:10.37,2013-03-07 22:43:00,
2013-03-07 16:48:00,71.7,53.1,30.05,SSE,153,1.5,4.6,52,0.00,CLR,,0.00,WeatherDisplay:10.37,2013-03-07 22:48:00,
2013-03-07 16:53:00,71.4,53.9,30.05,East,85,0.1,1.2,54,0.00,CLR,,0.00,WeatherDisplay:10.37,2013-03-07 22:53:00,
2013-03-07 16:58:00,71.2,53.7,30.05,East,101,1.4,5.0,54,0.00,CLR,,0.00,WeatherDisplay:10.37,2013-03-07 22:58:00,
2013-03-07 17:03:00,70.9,53.9,30.05,SSE,157,1.9,4.6,55,0.00,CLR,,0.00,WeatherDisplay:10.37,2013-03-07 23:03:00,
2013-03-07 17:08:00,70.7,53.7,30.05,SSE,150,0.9,3.5,55,0.00,CLR,,0.00,WeatherDisplay:10.37,2013-03-07 23:08:00,
2013-03-07 17:13:00,70.4,54.0,30.06,East,100,0.1,1.2,56,0.00,CLR,,0.00,WeatherDisplay:10.37,2013-03-07 23:13:00,
2013-03-07 17:18:00,70.2,54.2,30.06,SSW,202,0.7,2.3,57,0.00,CLR,,0.00,WeatherDisplay:10.37,2013-03-07 23:18:00,
2013-03-07 17:23:00,70.0,54.1,30.06,ENE,67,0.1,1.2,57,0.00,CLR,,0.00,WeatherDisplay:10.37,2013-03-07 23:23:00,
2013-03-07 17:28:00,69.7,54.3,30.06,NNE,31,0.3,2.0,58,0.00,CLR,,0.00,WeatherDisplay:10.37,2013-03-07 23:28:00,
2013-03-07 17:33:00,69.5,54.1,30.07,WNW,302,1.6,4.6,58,0.00,CLR,,0.00,WeatherDisplay:10.37,2013-03-07 23:33:00,
2013-03-07 17:38:00,69.2,54.3,30.06,East,96,0.4,2.3,59,0.00,CLR,,0.00,WeatherDisplay:10.37,2013-03-07 23:38:00,
2013-03-07 17:43:00,68.8,54.3,30.07,South,182,0.3,2.3,60,0.00,CLR,,0.00,WeatherDisplay:10.37,2013-03-07 23:43:00,
2013-03-07 17:48:00,68.5,54.1,30.07,ENE,63,2.7,6.9,60,0.00,CLR,,0.00,WeatherDisplay:10.37,2013-03-07 23:48:00,
2013-03-07 17:53:00,68.1,54.1,30.07,SE,132,0.4,2.3,61,0.00,CLR,,0.00,WeatherDisplay:10.37,2013-03-07 23:53:00,
2013-03-07 17:58:00,68.0,54.5,30.08,SSW,202,0.1,1.2,62,0.00,CLR,,0.00,WeatherDisplay:10.37,2013-03-07 23:58:00,
2013-03-07 18:03:00,67.8,54.3,30.08,SE,133,0.0,2.3,62,0.00,CLR,,0.00,WeatherDisplay:10.37,2013-03-08 00:03:00,
2013-03-07 18:08:00,67.7,54.2,30.08,SSW,206,0.7,3.5,62,0.00,CLR,,0.00,WeatherDisplay:10.37,2013-03-08 00:08:00,
2013-03-07 18:13:00,67.5,54.5,30.08,SSE,148,1.3,3.5,63,0.00,CLR,,0.00,WeatherDisplay:10.37,2013-03-08 00:13:00,
2013-03-07 18:18:00,67.3,54.3,30.08,SE,131,0.4,2.3,63,0.00,CLR,,0.00,WeatherDisplay:10.37,2013-03-08 00:18:00,
2013-03-07 18:23:00,67.2,54.2,30.08,ESE,111,0.8,4.0,63,0.00,CLR,,0.00,WeatherDisplay:10.37,2013-03-08 00:23:00,
2013-03-07 18:28:00,67.0,54.4,30.07,SE,127,2.1,4.0,64,0.00,CLR,,0.00,WeatherDisplay:10.37,2013-03-08 00:28:00,
2013-03-07 18:33:00,66.7,54.6,30.08,ENE,63,0.2,1.2,65,0.00,CLR,,0.00,WeatherDisplay:10.37,2013-03-08 00:33:00,
2013-03-07 18:38:00,66.6,54.5,30.08,West,275,0.2,1.2,65,0.00,CLR,,0.00,WeatherDisplay:10.37,2013-03-08 00:38:00,
2013-03-07 18:43:00,66.4,54.3,30.08,SE,128,2.1,4.6,65,0.00,CLR,,0.00,WeatherDisplay:10.37,2013-03-08 00:43:00,
2013-03-07 18:48:00,66.1,54.4,30.08,East,98,2.2,4.6,66,0.00,CLR,,0.00,WeatherDisplay:10.37,2013-03-08 00:48:00,
2013-03-07 18:53:00,65.9,54.2,30.08,East,97,0.4,2.0,66,0.00,CLR,,0.00,WeatherDisplay:10.37,2013-03-08 00:53:00,
2013-03-07 18:58:00,65.7,54.4,30.08,NE,52,1.2,3.5,67,0.00,CLR,,0.00,WeatherDisplay:10.37,2013-03-08 00:58:00,
2013-03-07 19:03:00,65.5,54.2,30.08,SSE,147,0.1,2.3,67,0.00,CLR,,0.00,WeatherDisplay:10.37,2013-03-08 01:03:00,
2013-03-07 19:08:00,65.4,54.6,30.08,ESE,103,0.7,4.6,68,0.00,CLR,,0.00,WeatherDisplay:10.37,2013-03-08 01:08:00,
2013-03-07 19:13:00,65.2,54.4,30.08,SE,132,0.2,2.3,68,0.00,CLR,,0.00,WeatherDisplay:10.37,2013-03-08 01:13:00,
2013-03-07 19:18:00,65.1,54.3,30.08,SSE,168,1.0,3.5,68,0.00,CLR,,0.00,WeatherDisplay:10.37,2013-03-08 01:18:00,
2013-03-07 19:23:00,65.0,54.2,30.08,SE,127,0.9,3.5,68,0.00,CLR,,0.00,WeatherDisplay:10.37,2013-03-08 01:23:00,
2013-03-07 19:28:00,64.8,54.4,30.09,SSE,162,1.2,3.5,69,0.00,CLR,,0.00,WeatherDisplay:10.37,2013-03-08 01:28:00,
2013-03-07 19:33:00,64.7,54.3,30.09,SSE,150,0.0,2.3,69,0.00,CLR,,0.00,WeatherDisplay:10.37,2013-03-08 01:33:00,
2013-03-07 19:38:00,64.6,54.2,30.09,East,96,0.0,2.3,69,0.00,CLR,,0.00,WeatherDisplay:10.37,2013-03-08 01:38:00,
2013-03-07 19:43:00,64.5,54.5,30.09,ESE,123,1.4,4.6,70,0.00,CLR,,0.00,WeatherDisplay:10.37,2013-03-08 01:43:00,
2013-03-07 19:49:00,64.4,54.4,30.09,ESE,113,0.0,1.2,70,0.00,CLR,,0.00,WeatherDisplay:10.37,2013-03-08 01:49:00,
2013-03-07 19:54:00,64.2,54.2,30.09,ESE,116,0.6,3.5,70,0.00,CLR,,0.00,WeatherDisplay:10.37,2013-03-08 01:54:00,
2013-03-07 19:59:00,64.1,54.1,30.09,ESE,107,0.0,1.2,70,0.00,CLR,,0.00,WeatherDisplay:10.37,2013-03-08 01:59:00,
2013-03-07 20:04:00,64.0,54.0,30.09,ESE,118,0.0,1.2,70,0.00,CLR,,0.00,WeatherDisplay:10.37,2013-03-08 02:04:00,
2013-03-07 20:09:00,63.9,54.3,30.10,SE,135,0.4,2.0,71,0.00,CLR,,0.00,WeatherDisplay:10.37,2013-03-08 02:09:00,
2013-03-07 20:14:00,63.7,54.1,30.10,SE,132,0.3,2.3,71,0.00,CLR,,0.00,WeatherDisplay:10.37,2013-03-08 02:14:00,
2013-03-07 20:19:00,63.6,54.0,30.10,SE,144,0.2,1.2,71,0.00,CLR,,0.00,WeatherDisplay:10.37,2013-03-08 02:19:00,
2013-03-07 20:24:00,63.6,54.0,30.09,SW,220,0.9,3.5,71,0.00,CLR,,0.00,WeatherDisplay:10.37,2013-03-08 02:24:00,
2013-03-07 20:29:00,63.5,54.3,30.10,SSW,193,0.1,1.2,72,0.00,CLR,,0.00,WeatherDisplay:10.37,2013-03-08 02:29:00,
2013-03-07 20:34:00,63.4,54.2,30.10,SW,233,1.0,2.3,72,0.00,CLR,,0.00,WeatherDisplay:10.37,2013-03-08 02:34:00,
2013-03-07 20:39:00,63.3,54.1,30.10,SE,144,1.2,2.3,72,0.00,CLR,,0.00,WeatherDisplay:10.37,2013-03-08 02:39:00,
2013-03-07 20:44:00,63.2,54.0,30.10,SSE,150,0.0,1.2,72,0.00,CLR,,0.00,WeatherDisplay:10.37,2013-03-08 02:44:00,
2013-03-07 20:49:00,63.1,54.3,30.10,SSE,154,0.9,2.3,73,0.00,CLR,,0.00,WeatherDisplay:10.37,2013-03-08 02:49:00,
2013-03-07 20:54:00,63.0,54.2,30.10,SE,143,0.9,3.5,73,0.00,CLR,,0.00,WeatherDisplay:10.37,2013-03-08 02:54:00,
2013-03-07 20:59:00,62.9,54.1,30.11,ESE,115,0.2,1.2,73,0.00,CLR,,0.00,WeatherDisplay:10.37,2013-03-08 02:59:00,
2013-03-07 21:04:00,62.8,54.0,30.11,SE,128,1.0,1.2,73,0.00,CLR,,0.00,WeatherDisplay:10.37,2013-03-08 03:04:00,
2013-03-07 21:09:00,62.7,53.9,30.12,WSW,248,0.0,0.0,73,0.00,CLR,,0.00,WeatherDisplay:10.37,2013-03-08 03:09:00,
2013-03-07 21:14:00,62.6,53.8,30.12,WSW,241,1.2,4.6,73,0.00,CLR,,0.00,WeatherDisplay:10.37,2013-03-08 03:14:00,
2013-03-07 21:19:00,62.5,54.1,30.12,SW,225,0.7,4.0,74,0.00,CLR,,0.00,WeatherDisplay:10.37,2013-03-08 03:19:00,
2013-03-07 21:24:00,62.4,54.0,30.12,WSW,243,0.4,2.3,74,0.00,CLR,,0.00,WeatherDisplay:10.37,2013-03-08 03:24:00,
2013-03-07 21:29:00,62.3,53.9,30.11,SW,217,0.1,1.2,74,0.00,CLR,,0.00,WeatherDisplay:10.37,2013-03-08 03:29:00,
2013-03-07 21:34:00,62.2,53.8,30.11,SSE,149,0.3,1.2,74,0.00,CLR,,0.00,WeatherDisplay:10.37,2013-03-08 03:34:00,
2013-03-07 21:39:00,62.1,53.7,30.11,ESE,121,2.0,3.5,74,0.00,CLR,,0.00,WeatherDisplay:10.37,2013-03-08 03:39:00,
2013-03-07 21:44:00,62.0,53.6,30.11,NNW,331,0.1,0.0,74,0.00,CLR,,0.00,WeatherDisplay:10.37,2013-03-08 03:44:00,
2013-03-07 21:49:00,61.9,53.5,30.11,NNE,18,1.2,3.5,74,0.00,CLR,,0.00,WeatherDisplay:10.37,2013-03-08 03:49:00,
2013-03-07 21:54:00,61.9,53.5,30.11,East,93,0.0,1.2,74,0.00,CLR,,0.00,WeatherDisplay:10.37,2013-03-08 03:54:00,
2013-03-07 21:59:00,61.8,53.4,30.11,SE,130,0.1,1.2,74,0.00,CLR,,0.00,WeatherDisplay:10.37,2013-03-08 03:59:00,
2013-03-07 22:04:00,61.7,53.3,30.11,SE,131,0.7,2.3,74,0.00,CLR,,0.00,WeatherDisplay:10.37,2013-03-08 04:04:00,
2013-03-07 22:09:00,61.7,53.3,30.11,SE,139,0.2,1.0,74,0.00,CLR,,0.00,WeatherDisplay:10.37,2013-03-08 04:09:00,
2013-03-07 22:14:00,61.6,53.2,30.11,SSE,157,0.1,0.0,74,0.00,CLR,,0.00,WeatherDisplay:10.37,2013-03-08 04:14:00,
2013-03-07 22:20:00,61.5,53.1,30.11,SSE,147,0.2,5.0,74,0.00,CLR,,0.00,WeatherDisplay:10.37,2013-03-08 04:20:00,
2013-03-07 22:25:00,61.5,53.5,30.10,South,176,0.1,4.0,75,0.00,CLR,,0.00,WeatherDisplay:10.37,2013-03-08 04:25:00,
2013-03-07 22:30:00,61.4,53.4,30.10,NW,306,1.5,4.6,75,0.00,CLR,,0.00,WeatherDisplay:10.37,2013-03-08 04:30:00,
2013-03-07 22:35:00,61.4,53.4,30.11,SE,130,0.7,2.3,75,0.00,CLR,,0.00,WeatherDisplay:10.37,2013-03-08 04:35:00,
2013-03-07 22:40:00,61.3,53.3,30.10,South,172,0.2,2.3,75,0.00,CLR,,0.00,WeatherDisplay:10.37,2013-03-08 04:40:00,
2013-03-07 22:45:00,61.3,53.3,30.10,East,90,0.3,1.2,75,0.00,CLR,,0.00,WeatherDisplay:10.37,2013-03-08 04:45:00,
2013-03-07 22:50:00,61.2,53.2,30.10,SE,128,0.4,2.3,75,0.00,CLR,,0.00,WeatherDisplay:10.37,2013-03-08 04:50:00,
2013-03-07 22:55:00,61.2,53.2,30.09,SSW,210,0.8,3.5,75,0.00,CLR,,0.00,WeatherDisplay:10.37,2013-03-08 04:55:00,
2013-03-07 23:00:00,61.2,53.6,30.09,WSW,242,0.1,1.2,76,0.00,CLR,,0.00,WeatherDisplay:10.37,2013-03-08 05:00:00,
2013-03-07 23:03:00,61.2,53.6,30.09,WSW,242,0.0,0.0,76,0.00,CLR,,0.00,WeatherDisplay:10.37,2013-03-08 05:03:00,
2013-03-07 23:08:00,61.1,53.5,30.09,WSW,242,0.0,0.0,76,0.00,CLR,,0.00,WeatherDisplay:10.37,2013-03-08 05:08:00,
2013-03-07 23:13:00,61.1,53.5,30.09,WSW,242,0.1,1.2,76,0.00,CLR,,0.00,WeatherDisplay:10.37,2013-03-08 05:13:00,
2013-03-07 23:18:00,61.1,53.5,30.09,SSE,153,0.1,1.2,76,0.00,CLR,,0.00,WeatherDisplay:10.37,2013-03-08 05:18:00,
2013-03-07 23:23:00,61.0,53.4,30.09,SSW,203,1.9,3.5,76,0.00,CLR,,0.00,WeatherDisplay:10.37,2013-03-08 05:23:00,
2013-03-07 23:28:00,60.9,53.3,30.08,SSE,156,1.3,4.6,76,0.00,CLR,,0.00,WeatherDisplay:10.37,2013-03-08 05:28:00,
2013-03-07 23:33:00,60.9,53.3,30.08,South,175,0.3,3.5,76,0.00,CLR,,0.00,WeatherDisplay:10.37,2013-03-08 05:33:00,
2013-03-07 23:38:00,60.9,53.3,30.09,South,175,0.0,0.0,76,0.00,CLR,,0.00,WeatherDisplay:10.37,2013-03-08 05:38:00,
2013-03-07 23:43:00,60.9,53.3,30.10,WSW,249,0.0,0.0,76,0.00,CLR,,0.00,WeatherDisplay:10.37,2013-03-08 05:43:00,
2013-03-07 23:48:00,60.8,53.5,30.10,SE,136,0.5,2.3,77,0.00,CLR,,0.00,WeatherDisplay:10.37,2013-03-08 05:48:00,
2013-03-07 23:53:00,60.8,53.5,30.10,SW,230,0.3,1.2,77,0.00,CLR,,0.00,WeatherDisplay:10.37,2013-03-08 05:53:00,
2013-03-07 23:58:00,60.8,53.5,30.10,South,180,1.1,3.5,77,0.00,CLR,,0.00,WeatherDisplay:10.37,2013-03-08 05:58:00,